Wind_Speed
17 17 15 14 14 14 14 14 13 13 13 13 12 13 13 12 12 11 11 12 13 11 10 10 9 8 8 8 8 8 8 7 8 7 8 9 8 8 8 6 7 9
18 18 17 16 15 14 15 14 14 14 13 12 11 12 12 12 12 12 11 13 13 11 10 10 10 9 8 8 8 8 8 8 8 8 9 8 7 7 8 7 7 9
18 18 18 16 16 15 15 14 14 14 13 13 12 10 10 12 12 12 11 12 11 10 12 11 10 10 9 8 8 8 8 8 8 8 8 7 7 7 7 8 10 10
19 19 18 17 16 16 15 15 15 14 13 14 14 12 11 11 12 13 12 11 11 11 13 12 11 10 9 8 8 8 8 7 8 7 7 5 5 7 9 10 11 9
20 20 19 18 18 17 16 16 15 15 15 14 14 14 14 12 11 12 13 12 13 13 13 12 12 11 10 9 8 8 8 8 8 8 9 7 5 5 9 12 10 7
21 21 20 19 19 18 17 17 16 16 16 15 14 14 14 14 13 12 12 13 13 12 12 12 13 12 11 10 9 9 9 9 8 7 8 9 8 7 7 10 10 8
21 21 20 19 19 19 18 18 17 17 16 16 17 16 14 15 14 13 13 14 14 13 11 13 14 14 12 11 10 11 10 9 9 7 7 8 9 8 6 8 9 9
21 21 20 19 19 19 19 18 17 17 16 15 17 18 16 15 15 14 14 14 15 14 12 13 15 14 12 11 10 10 9 8 9 9 7 8 9 9 7 8 9 9
20 20 21 20 19 19 19 19 17 16 16 16 16 15 15 15 15 15 14 14 14 15 14 14 15 14 13 12 10 9 9 9 9 9 8 9 9 9 9 9 8 9
21 20 20 21 20 19 19 19 18 17 16 16 15 15 14 14 14 14 14 14 14 13 13 13 13 13 12 11 9 8 9 9 9 8 8 7 7 8 8 7 8 10
20 20 20 21 21 20 20 19 18 18 17 16 16 16 15 14 14 14 15 16 14 12 11 10 11 9 9 9 9 7 8 9 8 8 7 5 5 5 5 7 8 8
20 20 21 21 21 20 19 19 19 18 17 18 17 16 15 15 15 14 14 14 13 11 11 10 10 9 9 10 9 7 7 7 6 7 6 5 3 3 4 3 5 7
20 20 19 20 22 21 20 19 19 18 17 17 17 15 15 14 13 14 12 11 11 9 8 9 10 10 9 10 10 8 7 6 6 5 5 5 2 2 2 5 5 3
21 21 19 18 18 20 22 20 18 19 19 17 16 16 15 14 13 13 13 11 11 9 6 7 9 9 7 8 9 8 7 6 5 3 3 2 1 2 2 1 4 4
20 21 20 19 16 16 21 21 17 16 17 17 17 16 15 16 14 12 12 11 11 10 9 9 9 9 9 9 8 6 3 3 4 3 2 1 1 1 2 6 6 6
18 20 20 20 17 13 16 19 16 13 10 10 14 14 12 13 12 11 12 10 9 12 12 10 9 10 11 11 9 6 3 1 3 3 2 1 2 3 5 8 9 10
19 20 20 21 19 13 11 14 14 11 8 6 8 10 9 10 10 10 8 4 8 13 13 11 9 10 9 8 6 5 3 1 1 2 3 4 5 7 10 11 12 12
20 21 21 21 20 14 10 9 10 9 9 7 8 9 9 9 10 9 6 7 10 12 13 11 9 8 6 4 3 3 3 5 7 8 9 9 10 12 14 13 13 13
22 23 21 20 20 17 12 10 10 9 9 9 10 11 10 10 11 10 7 10 12 13 13 11 9 7 5 5 5 7 9 12 13 12 13 13 13 14 14 14 14 14
21 23 22 20 19 16 11 9 10 11 12 12 11 9 9 8 8 8 9 13 15 15 14 11 9 8 8 8 11 13 15 16 15 14 14 14 14 14 14 15 16 17
19 21 20 17 14 14 12 10 12 15 17 14 10 8 9 9 8 8 11 15 17 17 15 13 10 10 11 13 15 16 16 15 15 16 16 16 16 16 16 18 19 20
16 16 16 13 9 12 16 14 13 15 15 13 11 11 12 14 16 16 15 17 17 16 14 13 12 13 15 16 15 14 14 16 18 19 19 19 18 18 18 19 19 19
13 11 13 12 6 9 14 14 14 13 10 10 14 16 16 19 22 20 19 18 18 15 14 14 15 15 16 16 15 14 16 19 22 23 22 21 20 20 20 19 18 18
11 10 10 10 5 7 13 16 16 13 9 13 20 20 19 22 23 21 19 18 17 16 16 18 18 16 16 18 17 16 18 23 25 25 24 23 23 23 23 21 20 19
10 7 3 3 4 8 13 16 17 14 13 20 25 21 19 21 20 19 18 16 17 19 20 21 21 18 17 19 18 17 19 23 26 27 27 26 26 26 25 24 23 21
5 4 2 4 8 12 14 16 16 16 17 22 24 20 19 21 21 21 21 21 21 22 21 22 22 19 16 17 18 19 20 24 27 29 29 28 28 28 27 25 23 21
Wind_Direction
185 188 188 187 188 189 191 191 195 200 201 198 198 205 208 202 197 203 208 207 205 208 218 220 220 225 229 233 239 244 252 256 260 262 258 258 261 272 286 290 294 299
187 189 190 192 194 196 198 197 199 202 203 206 208 207 205 205 205 206 208 205 200 203 214 218 220 224 227 232 237 239 246 254 261 267 269 271 279 292 305 309 305 306
189 190 192 195 197 198 201 201 201 204 203 204 212 214 203 199 202 205 208 206 200 205 213 213 217 225 228 232 239 241 246 255 259 274 300 316 315 300 292 297 302 307
191 192 195 199 201 200 201 202 202 205 207 202 201 204 204 201 203 204 207 209 208 209 212 214 217 223 225 226 235 242 246 252 247 258 292 310 315 307 299 305 316 318
195 196 198 201 204 203 201 204 204 204 208 205 198 199 203 204 205 207 206 205 208 213 215 216 215 218 223 224 229 236 241 250 248 252 262 250 244 284 303 311 318 320
198 200 201 202 204 203 204 206 206 205 206 204 203 205 203 201 206 211 208 204 205 210 212 211 211 213 217 221 224 228 235 249 257 259 256 252 255 263 289 305 304 302
198 201 202 204 205 204 207 208 208 210 208 202 204 209 205 202 206 209 208 208 207 206 205 207 208 211 214 216 219 224 231 243 255 256 249 257 271 275 288 304 300 292
199 201 202 207 208 206 209 210 210 212 210 206 206 205 203 202 205 208 209 210 208 206 207 208 207 208 210 211 216 223 223 231 246 255 264 270 268 269 284 293 290 295
202 202 201 207 211 211 212 212 212 211 210 213 213 206 206 206 204 208 210 210 210 209 206 208 210 210 208 207 214 221 217 221 237 253 274 281 272 271 283 288 300 326
205 205 203 206 211 214 215 214 213 212 208 213 217 213 210 207 204 209 211 211 215 214 204 198 203 206 205 207 213 220 226 233 244 255 262 261 260 274 291 317 342 342
207 208 208 208 210 213 216 216 215 213 208 211 217 216 211 206 206 213 215 212 212 216 213 196 189 196 205 210 210 210 226 240 249 256 257 245 253 287 335 2 348 315
211 210 211 211 212 215 217 217 218 216 211 210 213 215 214 210 210 212 216 216 211 213 218 200 182 186 198 198 190 186 208 239 251 250 248 240 249 11 27 340 278 270
214 217 217 213 211 216 220 220 220 220 218 214 209 212 216 216 216 215 214 216 213 212 219 209 196 198 203 200 194 191 204 231 243 240 244 240 251 6 307 275 274 267
214 221 227 224 217 215 220 225 222 220 223 220 211 210 214 216 222 221 213 210 213 208 197 191 191 190 190 198 208 214 220 232 234 240 254 246 3 327 265 349 30 53
213 216 223 231 232 224 222 228 231 227 227 222 216 216 214 213 219 227 224 214 201 187 173 167 174 178 178 182 193 203 217 251 260 269 257 218 74 22 81 76 79 91
209 208 212 221 232 235 227 226 229 236 241 224 215 217 214 208 210 222 233 222 179 164 166 170 172 172 173 178 183 181 171 288 286 265 227 154 101 106 102 101 111 106
212 209 210 214 223 234 232 223 223 234 250 231 207 203 201 199 196 201 215 196 154 162 169 171 171 168 172 182 188 192 186 75 50 159 151 128 116 121 122 116 110 101
223 221 218 216 218 222 219 214 218 230 242 238 214 200 198 197 190 184 165 126 133 155 161 160 166 169 177 184 164 158 145 111 111 119 114 107 111 116 117 112 106 104
226 225 223 219 217 215 207 204 212 226 246 252 233 212 205 200 191 183 160 130 130 145 151 149 153 159 162 157 132 122 120 116 116 116 106 101 103 106 108 109 112 114
225 223 219 217 215 212 206 196 200 213 232 248 247 222 203 197 185 171 150 133 131 142 146 139 139 147 144 134 128 126 124 117 112 108 103 100 100 102 107 111 114 115
222 222 214 207 204 204 204 195 190 200 209 218 226 216 203 196 176 153 139 133 135 142 139 129 130 139 135 131 134 138 133 121 113 108 105 102 100 100 105 109 111 110
220 222 215 209 194 187 196 202 204 205 205 200 191 185 187 181 168 157 150 146 148 147 138 128 130 138 137 132 135 142 134 120 114 112 108 105 103 102 104 108 109 108
214 216 218 222 202 167 184 204 214 211 207 198 185 172 164 162 157 154 154 154 152 149 143 135 132 136 140 135 135 139 131 122 120 118 113 110 109 110 112 111 109 110
213 216 222 230 219 166 181 198 205 201 187 181 180 169 154 151 148 145 147 149 147 143 140 135 130 133 139 139 139 140 134 129 126 122 117 113 112 114 116 114 112 115
205 211 223 218 179 168 178 188 191 186 170 168 174 169 149 142 140 136 132 130 131 133 133 131 128 130 137 141 142 143 139 135 130 124 119 115 112 112 112 111 112 114
177 194 162 118 134 150 165 175 179 176 162 160 168 165 145 136 137 133 124 119 122 124 126 128 128 127 135 141 141 141 139 133 127 122 118 114 112 110 109 108 110 111
Height
801 802 803 804 806 807 808 809 810 812 812 813 815 815 816 817 818 819 820 820 821 823 824 824 825 826 826 827 828 828 829 829 830 830 830 830 831 831 831 831 830 830
800 801 802 803 804 806 807 808 809 810 811 812 813 814 815 816 817 817 818 819 820 822 823 824 824 825 825 826 827 827 828 829 829 830 830 830 831 832 832 831 830 830
799 800 801 802 803 804 805 806 807 808 810 811 812 813 814 815 816 816 817 818 819 821 821 822 823 824 824 825 826 827 828 828 829 830 830 830 831 831 831 831 830 830
797 799 800 801 802 803 804 805 806 807 808 809 810 812 813 813 814 815 816 817 818 820 820 821 822 822 823 824 825 826 827 827 827 828 828 828 829 831 831 831 831 831
796 797 798 800 800 802 803 804 805 806 807 808 809 810 811 812 813 814 815 816 817 818 819 820 821 822 823 823 824 825 825 826 826 826 826 826 828 829 829 830 830 831
794 795 796 798 799 800 802 803 804 805 806 807 808 809 810 811 812 813 814 815 816 817 818 819 820 820 821 822 823 824 824 825 825 825 826 827 827 828 828 829 829 830
792 794 795 796 797 799 800 801 802 803 804 806 807 808 809 811 812 812 813 814 815 816 817 817 819 819 820 821 822 823 823 823 824 824 825 826 827 827 827 828 829 829
790 792 793 795 796 797 798 799 800 801 803 804 805 807 809 810 811 812 813 814 814 815 815 816 817 818 819 820 821 822 822 822 823 823 825 825 825 826 826 827 828 829
788 789 791 793 794 795 796 797 798 799 801 803 804 805 807 809 810 811 812 812 813 814 814 815 816 817 818 819 820 821 821 822 822 822 824 825 825 825 826 826 828 831
786 787 789 790 791 793 794 795 796 797 799 802 803 804 805 807 809 810 811 811 812 813 813 814 815 816 817 819 819 820 821 821 822 822 823 824 825 826 826 828 831 833
784 785 786 788 789 790 791 793 794 795 797 800 801 802 803 806 807 809 810 810 811 812 812 814 815 815 817 819 819 820 820 820 821 821 823 824 825 826 827 830 832 831
782 783 784 785 787 788 790 791 793 794 796 797 799 800 802 804 805 807 808 809 809 810 812 813 813 814 816 818 818 819 819 820 820 821 822 823 825 826 827 827 826 825
780 781 782 783 785 787 789 790 792 793 794 795 797 799 801 802 803 805 806 807 808 810 811 812 812 813 815 816 817 818 819 819 820 821 822 823 825 825 825 824 823 824
778 780 781 782 784 786 787 789 790 792 793 794 796 798 799 801 802 803 804 806 808 809 810 811 812 813 814 815 816 817 818 819 820 821 821 823 824 824 823 824 825 825
777 779 780 781 782 784 786 787 789 791 792 793 795 796 798 799 801 802 803 804 806 807 808 810 811 812 812 814 815 816 817 818 819 820 820 821 822 822 823 824 825 825
775 777 778 780 781 783 784 786 788 790 791 792 794 795 797 798 800 801 802 803 804 804 807 809 810 811 812 814 815 815 817 818 818 818 819 819 820 822 823 824 825 825
774 775 776 778 779 781 783 785 787 789 791 793 793 795 796 797 799 800 801 801 802 803 805 807 809 811 812 813 814 815 816 817 817 818 819 820 821 822 823 824 825 825
774 774 775 777 778 780 782 784 787 790 792 794 794 795 796 797 798 800 800 800 802 803 805 806 808 810 811 812 813 814 815 816 817 818 819 820 822 822 823 824 825 825
773 773 774 776 777 779 781 783 786 790 793 796 797 796 797 798 798 800 801 801 802 803 804 805 808 810 811 811 812 813 815 815 816 817 818 820 821 822 823 824 824 826
771 771 773 774 775 778 781 784 786 788 792 797 798 796 797 798 799 801 801 802 803 804 805 806 808 809 810 811 812 813 814 814 816 817 818 820 821 822 823 824 825 826
768 769 771 772 773 777 781 784 784 785 788 793 796 797 797 798 800 802 802 802 803 804 805 807 808 809 810 811 812 812 813 814 815 817 819 821 822 822 823 824 825 827
767 768 770 771 772 775 779 782 782 783 785 789 793 796 796 796 798 800 800 801 802 803 804 806 808 809 810 812 813 812 812 813 816 818 820 821 823 824 825 826 827 828
766 767 769 770 772 774 778 780 781 783 785 788 791 793 793 794 795 795 798 799 800 801 803 804 807 809 810 812 813 813 813 814 815 817 820 822 824 825 826 827 829 829
766 767 768 769 771 773 777 779 780 783 785 787 790 791 791 792 792 794 797 798 798 800 802 803 806 809 810 811 812 813 815 815 815 816 820 823 825 826 828 828 830 831
766 767 768 769 770 772 775 777 778 781 784 785 787 789 789 790 792 794 797 799 799 800 801 803 806 809 811 811 812 814 816 816 816 816 820 823 826 827 829 830 831 833
767 768 769 769 770 772 774 776 777 779 782 783 785 788 789 790 792 794 797 800 802 803 803 804 805 809 812 812 812 814 816 817 817 817 820 824 826 828 830 831 833 835